Simultaneous Nadir Overpasses (SNOs) Predictions

Prediction of SNOs between LANDSAT-8 and METOP-B Satellite Orbit:

Table of predicted SNOs for the next 14.0 days since TLE Epoch: 7/30/2022
Index Date (LANDSAT-8) Time (LANDSAT-8) Lat,Lon (LANDSAT-8) SZA (LANDSAT-8 ) Date (METOP-B) Time (METOP-B) Lat,Lon (METOP-B) SZA (METOP-B ) Distance(km) Time Diff (sec)
1 07/30/2022 11:08:05 -81.18,-126.10 115.21 07/30/2022 11:07:52 -81.17,-126.21 115.23 1.99 13
2 07/30/2022 11:57:31 81.18, 41.66 64.82 07/30/2022 11:58:31 81.19, 41.72 64.86 1.21 60
3 08/02/2022 06:42:22 -81.17, -59.69 114.51 08/02/2022 06:42:13 -81.17, -59.68 114.51 0.23 9
4 08/02/2022 07:31:48 81.18, 108.04 65.52 08/02/2022 07:32:53 81.18, 107.86 65.53 3.02 65
5 08/05/2022 02:16:39 -81.17, 6.66 113.78 08/05/2022 02:16:34 -81.18, 6.83 113.76 2.98 5
6 08/05/2022 03:06:04 81.20, 174.74 66.30 08/05/2022 03:07:13 81.19, 174.74 66.33 0.16 69
7 08/07/2022 21:01:28 81.16, -94.68 66.98 08/07/2022 21:00:15 81.15, -94.80 66.93 2.12 73
8 08/07/2022 21:50:54 -81.18, 73.33 112.96 08/07/2022 21:50:54 -81.18, 73.31 112.97 0.56 0
9 08/07/2022 22:40:20 81.19,-118.99 67.06 08/07/2022 22:41:34 81.18,-119.17 67.07 2.99 74
10 08/10/2022 16:35:44 81.17, -28.10 67.82 08/10/2022 16:34:35 81.17, -27.98 67.80 2.02 69



Historial Predications of SNOs between LANDSAT-8 and METOP-B
